Showing default

NINGXIA-1 4, 44782

Orbit data source: Space-Track

NINGXIA-1 4, 44782 is a Chinese payload satellite in LEO that was launched on Wed, 13 Nov 2019 UTC via a CHANG ZHENG 6 launch vehicle from the Taiyaun Space Center, China (TSC). Payload-class satellites include a variety of spacecraft equipped with specific instruments for various scientific and technological missions. These include communications satellites like Starlink; space stations such as the ISS; scientific satellites like the Hubble; Earth observation satellites from companies like Planet Labs, Umbra, and HawkEye 360; GPS; miniature CubeSats for education and research; and military/defense satellites.

Loading next visibility...
Identifier
44782, 2019-076D
Orbit
LEO
Country
Flag of CNCN / PRC
Related business
Manufacturer
DFH
Mission
Operational Commercial Sigint
Bus & Motor
NX-1, Unknown motor
Mass
~100 kg wet, ~100 kg dry
Launch date (UTC)
2019-11-13 (6 years ago)
Launch vehicle
CHANG ZHENG 6
Launch site
Taiyaun Space Center, China (TSC)
Object type
Payload
Rocket body
Debris
Shape & HBR
Box + 2 Pan, Unknown HBR
Radar Cross Section
0.166 m², Medium (>0.1 m² and < 1m²)

Expand to show TLE details & history
Last TLE update: 20 hours ago

TLE from 20 hours ago
0 NINGXIA-1 4
1 44782U 19076D   25261.28378925 -.00000051  00000-0  51297-4 0  9993
2 44782  45.0091 314.8273 0013940 275.4373  84.4871 14.01970076299661
Epoch: 2025-09-18T06:48Z
TLE epoch observation values (Epoch: 2025-09-18T06:48:39.391Z)
Latitude
0.00001°
Longitude
-144.78442°
Altitude
886.022 km
Speed
7.411 km/s
True Right ascension
20h 59m 18s
True Declination
0° 00' 00"
Sunlit
Object was in full shadow at epoch
Visualization orbit readout
Latitude
Unknown
Longitude
Unknown
Altitude
Unknown
Speed
Unknown
Apparent Right ascension
Unknown
Apparent Declination
Unknown
Sunlit
N/A
Visualization observer readout
Local Sidereal Time
20:03:07
Azimuth
Unknown
Elevation
Unknown
Doppler factor
Unknown
Orbital elements
Apogee altitude
898.63 km
Perigee altitude
878.37 km
Semi-major axis
7,266.637 km
Eccentricity
0.00139
Inclination
45.0091°
RAAN
314.8273°
Arg. of periapsis
275.4373°
True anomaly
84.64613°
Mean anomaly
84.4871°
Eccentric anomaly
84.56661°
Mean motion
3.50383 °/min
Orbital period
102.74 mins
BSTAR
0.000051297
Loading maneuver chart data...
Computing Atmospheric mass density...
Loading historical data...
Loading historical data...
Loading historical data...
Loading historical data...
Loading historical data...
Loading historical data...
Loading historical data...
Other satellites on launch #76 in the year 2019 (2019-11-13 UTC)

Documentation

Showing up to 5 results
|